www.pogodaiklimat.ru

Погода и климат >> Архив погоды >> Гондурас >> Choluteca


ПОГОДА в Choluteca

  • Прогноз погоды в Choluteca
  • Монитор погоды в Choluteca
  • Климат города

АРХИВ ПОГОДЫ в Choluteca

Время (UTC), дата Ветер
(напр.,м/с)
 
Видим.   Явления Облачность Т
(С)
Тd
(С)
f
(%)
Тe
(С)
Тes
(С)
Комфортность P
(гПа)
Po
(гПа)
Тmin
(С)
Tmax
(С)
R
(мм)
R24
(мм)
S
(см)
21 18.04 ЮЗ 1 28 км мгла {туман} 6/4 1020 м
[Cu med, cong Ci fib]
+36.6 +20.6 39 +43 +50 опасность
перегрева
1007.7 1002.0
00 19.04 З 3 28 км мгла {туман} 6/4 960 м
[Cb cap Ci sp]
+30.2 +22.7 64 +40 +40 очень
душно
1008.0 1002.3 +23.4 +37.5
12 19.04 С 7 20 км мгла 9/1 900 м
[Sc Ac trans Cs]
+26.8 +22.6 78 +35 +35 очень
душно
1010.7 1005.0 +26.8 +37.5
15 19.04 СВ 7 20 км мгла {туман} 3/1 1020 м
[Cu hum Ac trans]
+31.8 +21.5 54 +40 +42 очень
душно
1011.7 1006.0
18 19.04 штиль 0 20 км мгла {туман} 5/5 1020 м
[Cu med, cong]
+37.4 +22.4 42 +46 +61 опасность
перегрева
1009.7 1004.0 +26.8 +37.4
21 19.04 Ю 5 20 км мгла {туман} 6/6 1020 м
[Cu med, cong]
+37.0 +23.5 46 +47 +50 опасность
перегрева
1006.7 1001.0
00 20.04 З 5 20 км мгла {туман} 5/5 1020 м
[Cb cap]
+32.0 +24.5 65 +45 +45 опасность
перегрева
1007.7 1002.0 +26.8 +39.0
12 20.04 0 дымка н/о 1011.6 1005.9 +24.2 +39.0 32
15 20.04 штиль 0 25 км мгла {туман} 9/1 960 м
[Cu hum Ac trans Cs]
+28.6 +22.5 70 +38 +46 очень
душно
1013.0 1007.3
18 20.04 штиль 0 28 км мгла {туман} 9/4 1020 м
[Cu med, cong Cs]
+33.5 +21.7 50 +42 +57 опасность
перегрева
1011.3 1005.6 +24.2 +33.5
21 20.04 З 1 25 км мгла {туман} 9/4 1020 м
[Cu med, cong Cs]
+34.4 +21.4 47 +42 +48 опасность
перегрева
1007.9 1002.2
00 21.04 З 4 25 км мгла {туман} 8/4 960 м
[Cu med, cong Ci fib]
+30.0 +21.9 62 +39 +39 очень
душно
1008.7 1003.0 +24.2 +35.2
12 21.04 штиль 0 7000 м дымка 5/3 900 м
[Sc Ci fib]
+24.8 +23.7 94 +34 +34 очень
душно
1011.7 1006.0 +24.8 +35.2
15 21.04 С 5 5000 м мгла {туман} 3/3 1020 м
[Cu hum]
+31.2 +23.9 65 +43 +47 опасность
перегрева
1012.7 1007.0
18 21.04 штиль 0 15 км мгла {туман} 5/5 1020 м
[Cu med, cong]
+35.0 +23.7 52 +46 +61 опасность
перегрева
1010.7 1005.0 +24.8 +35.0
21 21.04 Ю 5 15 км мгла {туман} 6/6 1020 м
[Cu med, cong Ci fib]
+36.2 +24.9 52 +49 +51 опасность
перегрева
1007.7 1002.0
00 22.04 Ю 5 20 км мгла {туман} 3/3 900 м
[Cu med, cong]
+31.2 +23.6 64 +42 +42 опасность
перегрева
1009.1 1003.4 +24.8 +37.0
12 22.04 штиль 0 12 км мгла 3/3 900 м
[Cu med, cong]
+25.2 +21.6 80 +32 +32 очень
душно
1009.5 1003.8 +25.2 +37.0
15 22.04 штиль 0 15 км мгла {туман} 4/4 1020 м
[Cu hum]
+31.5 +23.5 63 +43 +53 опасность
перегрева
1010.8 1005.1
18 22.04 З 2 20 км мгла {туман} 5/5 1020 м
[Cu med, cong]
+35.8 +21.8 44 +44 +55 опасность
перегрева
1009.7 1004.0 +25.2 +35.8
21 22.04 З 2 25 км мгла {туман} 4/4 1020 м
[Cu med, cong]
+36.2 +21.5 43 +44 +50 опасность
перегрева
1006.6 1000.9
00 23.04 З 3 25 км мгла {туман} 3/3 960 м
[Cu med, cong]
+32.1 +19.6 48 +38 +38 очень
душно
1007.7 1002.0 +25.2 +36.7
12 23.04 штиль 0 10 км дымка 5/1 900 м
[Sc Ci fib]
+23.6 +22.8 95 +31 +31 очень
душно
1009.4 1003.7 +23.6 +36.7
15 23.04 штиль 0 15 км мгла {туман} 1/1 1020 м
[Cu hum]
+31.2 +24.3 67 +43 +59 опасность
перегрева
1010.6 1004.9
18 23.04 штиль 0 15 км мгла {туман} 3/3 1020 м
[Cu med, cong]
+36.0 +23.4 48 +46 +67 опасность
перегрева
1008.7 1003.0 +23.6 +36.0
21 23.04 Ю 5 15 км мгла {туман} 5/4 1020 м
[Cu med, cong Ci fib]
+35.4 +22.6 48 +45 +48 опасность
перегрева
1006.7 1001.0
00 24.04 Ю 3 10 км мгла {туман} 9/3 900 м
[Cu med, cong Ac trans Ci fib]
+30.2 +22.3 63 +39 +39 очень
душно
1008.2 1002.5 +23.6 +37.0
12 24.04 штиль 0 18 км мгла 9/1 900 м
[Sc Ac As]
+27.6 +23.8 80 +38 +38 очень
душно
1010.8 1005.1 +27.6 +37.0
15 24.04 СВ 1 15 км мгла {туман} 8/3 960 м
[Cu hum Cs]
+32.8 +22.5 55 +42 +51 опасность
перегрева
1010.4 1004.7
18 24.04 СВ 1 15 км мгла {туман} 9/5 1020 м
[Cu med, cong Ac trans]
+36.6 +21.9 43 +45 +52 опасность
перегрева
1008.9 1003.2 +27.4 +36.6
21 24.04 З 3 15 км мгла {туман} 9/5 1020 м
[Cu med, cong Ac trans Ci fib]
+35.1 +22.0 47 +44 +46 опасность
перегрева
1006.5 1000.8
00 25.04 В 4 18 км гроза без осадков {дождь} 9/5 600 м
[Cb cap Ac As]
+26.8 +23.9 84 +37 +37 очень
душно
1009.0 1003.3 +23.8 +37.0 3
12 25.04 штиль 0 3000 м дымка 9/3 900 м
[Sc Ac As Ci fib]
+25.0 +24.7 98 +35 +35 очень
душно
1010.2 1004.5 +25.0 +37.0 0.0
15 25.04 штиль 0 10 км мгла {туман} 9/3 900 м
[Cu hum Cs]
+30.6 +24.0 68 +42 +52 опасность
перегрева
1011.4 1005.7

 

Местоположение метеостанции Choluteca (Гондурас): широта 13.30 долгота -87.18 высота над уровнем моря 48 м.

В архиве по умолчанию представлена погода в Choluteca за последнюю неделю. Архивные данные за месяц целиком и за предыдущие месяцы, начиная с января 2011 года, Вы можете получить, выбрав интересующий диапазон дат из раскрывающегося списка и нажав кнопку "Ввод!".

Внимание! Время в таблицах - всемирное. Для получения местного времени необходимо прибавить поправку, которая в Choluteca равна -6 ч.

Смотрите также архив погоды в соседних городах и на ближайших метеорологических станциях:

Погода в Amapala (Гондурас) (51 км)
Погода в Chinandega (Никарагуа) (75 км)
Погода в Tegucigalpa (Гондурас) (83 км)
Погода в Jinotega (Никарагуа) (132 км)
Погода в La Esperanza (Гондурас) (155 км)
Погода в Managua (Никарагуа) (168 км)
Погода в Yoro (Гондурас) (208 км)
Погода в Catacamas (Гондурас) (223 км)
Погода в Juigalpa (Никарагуа) (237 км)
Погода в Santa Rosa De Copan (Гондурас) (239 км)

Пояснения к столбцам:

Ветер - указаны скорость ветра в м/с - средняя за 10 мин, порывы в срок и между сроками (в фигурных скобках) и направление, откуда дует ветер: С - северный, СВ - северо-восточный, В - восточный, ЮВ - юго-восточный, Ю - южный, ЮЗ - юго-западный, З - западный, СЗ - северо-западный.
Видимость - горизонтальная дальность видимости в метрах или километрах. При видимости от 1 до 10 км при отсутствии осадков обычно наблюдается дымка, при ухудшении видимости до 1 км и менее - туман. В сухую погоду видимость может ухудшаться дымом, пылью или мглою.
Явления - указаны атмосферные явления, наблюдавшиеся в срок или в последний час перед сроком; фигурными скобками обозначены явления, наблюдавшиеся между сроками (за 1-3 часа до срока); квадратными скобками обозначены град или гололедные отложения с указанием их диаметра в мм.
Облачность - указаны через наклонную черту общая и нижняя облачность в баллах и высота нижней границы облаков в метрах; квадратными скобками обозначены формы облаков: Ci - перистые, Cs - перисто-слоистые, Cc - перисто-кучевые, Ac - высококучевые, As - высокослоистые, Sc - слоисто-кучевые, Ns - слоисто-дождевые, Cu - кучевые, Cb - кучево-дождевые. Подробнее классификацию облаков см. в Атласе облаков (PDF).
T - Температура воздуха - температура, измеренная на высоте 2 м над землей.
Td - Температура точки росы - температура, при понижении до которой содержащийся в воздухе водяной пар достигнет насыщения.
f - Относительная влажность воздуха - влажноcть воздуха, измеренная на высоте 2 м над землей.
Te - Эффективная температура - температура, которую ощущает одетый по сезону человек в тени. Характеристика душности погоды. При расчете учитывается влияние влажности воздуха и скорости ветра на теплоощущения человека.
Tes - Эффективная температура на солнце - температура, которую ощущает человек, с поправкой на солнечный нагрев. Характеристика знойности погоды. Зависит от высоты солнца над горизонтом, облачности и скорости ветра. Ночью, в пасмурную погоду, а также при ветре 12 м/с и более поправка равна нулю.
P - Атмосферное давление - приведенное к уровню моря атмосферное давление.
Po - Атмосферное давление - измеренное на уровне метеостанции атмосферное давление.
Tmin - Минимальная температура - минимум температуры воздуха на высоте 2 м над землей.
Tmax - Максимальная температура - максимум температуры воздуха на высоте 2 м над землей.
R - Количество осадков - Количество выпавших осадков за период времени, мм. При наведении курсора мыши на число - период времени, за который выпало указанное количество осадков.
R24 - Количество осадков - Количество выпавших осадков за 24 часа, мм.
S - Снежный покров - Высота снежного покрова, см. При наведении курсора мыши на число - состояние снежного покрова и степень покрытия местности в баллах.